Regional Weather Roundup
Issued by NWS Raleigh/Durham, NC

Home | Current Version | Previous Version | Text Only | Print | Product List | Glossary On
Versions: 1 2 3 4 5 6 7 8 9 10 11 12 13 14 15 16 17 18 19 20 21 22 23 24 25 26 27 28 29 30 31 32 33 34 35 36 37 38 39 40 41 42 43 44 45 46 47 48 49 50
000
ASUS42 KRAH 201410
RWRRAH
NORTH CAROLINA WEATHER ROUNDUP
NATIONAL WEATHER SERVICE RALEIGH NC
900 AM EST SAT DEC 20 2014

NOTE: "FAIR" INDICATES FEW OR NO CLOUDS BELOW 12,000 FEET WITH NO
SIGNIFICANT WEATHER AND/OR OBSTRUCTIONS TO VISIBILITY.

NCZ001-053-055-056-065-067-201500-
WESTERN NORTH CAROLINA

CITY           SKY/WX    TMP DP  RH WIND       PRES   REMARKS
ASHEVILLE      CLOUDY    38  35  89 CALM      30.19R
JEFFERSON      CLOUDY    32  26  77 SE3       30.16S
MORGANTON      CLOUDY    39  35  86 CALM      30.27S
HICKORY        CLOUDY    39  30  70 NE6       30.23S WCI  35
RUTHERFORDTON  CLOUDY    39  37  94 CALM      30.24R
MOUNT AIRY     FLURRIES  35  27  74 NE7       30.27S WCI  29
BOONE          PTSUNNY   32  26  78 CALM      30.17S
$$

NCZ021-022-025-041-071-084-088-201500-
CENTRAL NORTH CAROLINA

CITY           SKY/WX    TMP DP  RH WIND       PRES   REMARKS
CHARLOTTE      LGT RAIN  40  34  79 NE5       30.24F
GREENSBORO     FLURRIES  34  28  79 N5        30.27R WCI  30
WINSTON-SALEM  LGT SNOW  33  26  75 NE7       30.28R WCI  27
RALEIGH-DURHAM LGT SNOW  34  27  75 NE6       30.29S FOG     WCI  29
FORT BRAGG     CLOUDY    37  36  93 NE6       30.26R WCI  33
FAYETTEVILLE   CLOUDY    39  35  86 NE10      30.26R WCI  32
BURLINGTON     FLURRIES  36  26  67 NE5       30.28R WCI  32
LAURINBURG     CLOUDY    40  35  83 NE9       30.26R WCI  34
$$

NCZ011-015-027-028-043-044-047-080-103-201500-
NORTHEASTERN NORTH CAROLINA

CITY           SKY/WX    TMP DP  RH WIND       PRES   REMARKS
ROCKY MT-WILSO CLOUDY    35  27  72 NE7       30.30S WCI  29
GREENVILLE     CLOUDY    36  32  87 NE6       30.30S WCI  31
WASHINGTON     CLOUDY    35  31  85 NE7       30.30S WCI  29
ELIZABETH CITY CLOUDY    40  30  67 NW5       30.32R
MANTEO         CLOUDY    41  35  80 N6        30.31R
CAPE HATTERAS  CLOUDY    43  35  73 VRB5      30.29R
$$

NCZ078-087-090-091-093-098-101-201500-
SOUTHEASTERN NORTH CAROLINA

CITY           SKY/WX    TMP DP  RH WIND       PRES   REMARKS
LUMBERTON      CLOUDY    42  35  76 NE7       30.24R
GOLDSBORO      MIX PCPN  37  36  93 NE3       30.27R
KINSTON        CLOUDY    37  32  81 NE7       30.29S WCI  32
KENANSVILLE    DRIZZLE   38  36  94 CALM      30.28S
NEW BERN       LGT RAIN  41  35  79 N6        30.29R
CHERRY POINT   LGT RAIN  42  37  82 NE10      30.28R
BEAUFORT       CLOUDY    43  39  86 NE7       30.27R
JACKSONVILLE   LGT RAIN  41  36  82 NE8       30.26S
WILMINGTON     LGT RAIN  43  40  89 NE8       30.24R
$$




USA.gov is the U.S. government's official web portal to all federal, state and local government web resources and services.